Volver al catálogo

STARLINK-35250

ActivoComunicacionesSSO
NORAD 65603·PAYLOAD·🇺🇸 United States

Lanzado Sep 13, 2025 desde Cape Canaveral Space Force Station

Loading…

Próximos Pases (próximas 24 horas)

TLE

ActualizadoSource: CelesTrak SupGP

Época: Sep 15, 2026, 03:37 UTC

1 65603C 25207M   26258.15118056  .02324500  00000+0  11383+0 0  2584
2 65603  97.2840 320.8548 0001709  88.6782 303.6705 15.17080739    14

Sigue STARLINK-35250 en tiempo real con AllMySat

Download on the App Store